Weather History for Cheyenne, WY

Change the Weather History Date:

Friday, August 15, 2014

  Actual Average Record
Temperature  
Mean Temperature 74 °F 68 °F  
Max Temperature 87 °F 82 °F 93 °F (1960)
Min Temperature 60 °F 55 °F 41 °F (1951)
Degree Days  
Heating Degree Days 0 1  
Month to date heating degree days 0 15  
Since 1 June heating degree days 155 171  
Since 1 July heating degree days 29 37  
Cooling Degree Days 9 4  
Month to date cooling degree days 56 70  
Year to date cooling degree days 229 280  
Since 1 June cooling degree days 228 277  
Growing Degree Days 24 (Base 50)    
Moisture  
Dew Point 46 °F    
Average Humidity 44    
Maximum Humidity 67    
Minimum Humidity 21    
Precipitation  
Precipitation 0.00 in 0.06 in 2.07 in (2008)
Month to date precipitation 0.37 1.13  
Year to date precipitation 12.55 11.63  
Snow  
Snow 0.00 in 0.00 in - ()
Month to date snowfall 0.0 0.0  
Since 1 July snowfall 0.0 0.0  
Snow Depth 0.00 in    
Sea Level Pressure  
Sea Level Pressure 29.91 in    
Wind  
Wind Speed 13 mph (WNW)    
Max Wind Speed 26 mph    
Max Gust Speed 35 mph    
Visibility 10 miles    
Events      
T = Trace of Precipitation, MM = Missing Value Source: NWS Daily Summary

Daily Weather History Graph

Daily Weather History Graph

Search for Another Location

Airport:

Trip Planner

Search our weather history database for the weather conditions in past years. The results will help you decide how hot, cold, wet, or windy it might be!

Date:

Astronomy

Aug. 15, 2014 Rise Set
Actual Time 6:08 AM MDT 7:57 PM MDT
Civil Twilight 5:39 AM MDT 8:27 PM MDT
Nautical Twilight 5:03 AM MDT 9:03 PM MDT
Astronomical Twilight 4:24 AM MDT 9:41 PM MDT
Moon 10:58 PM MDT (8/15) 11:58 AM MDT (8/15)
Length of Visible Light 14h 48m
Length of Day
13h 49m
Waning Gibbous, 68% of the Moon is Illuminated
Aug 15
Waning Gibbous
Aug 17
Last Quarter
Aug 25
New
Sep 2
First Quarter
Sep 8
Full

Hourly Weather History & Observations

Time (MDT) Temp. Dew Point Humidity Pressure Visibility Wind Dir Wind Speed Gust Speed Precip Events Conditions
12:53 AM 62.1 °F 52.0 °F 70% 29.91 in 10.0 mi WNW 8.1 mph - N/A   Scattered Clouds
1:53 AM 64.0 °F 51.1 °F 63% 29.86 in 10.0 mi WNW 4.6 mph - N/A   Clear
2:53 AM 62.1 °F 48.9 °F 62% 29.87 in 10.0 mi WNW 9.2 mph - N/A   Clear
3:53 AM 62.1 °F 46.9 °F 58% 29.91 in 10.0 mi WNW 10.4 mph - N/A   Clear
4:53 AM 60.1 °F 48.0 °F 64% 29.91 in 10.0 mi WNW 12.7 mph - N/A   Partly Cloudy
5:53 AM 61.0 °F 48.9 °F 64% 29.92 in 10.0 mi WNW 11.5 mph - N/A   Scattered Clouds
6:53 AM 64.0 °F 48.9 °F 58% 29.92 in 10.0 mi WNW 12.7 mph 23.0 mph N/A   Clear
7:53 AM 66.2 °F 51.8 °F 60% 30.17 in 10.0 mi West 11.5 mph 19.6 mph N/A   Clear
8:53 AM 73.0 °F 51.1 °F 46% 29.92 in 10.0 mi West 19.6 mph 29.9 mph N/A   Clear
9:53 AM 78.1 °F 48.9 °F 36% 29.92 in 10.0 mi WNW 17.3 mph 26.5 mph N/A   Clear
10:53 AM 79.0 °F 48.0 °F 34% 29.92 in 10.0 mi NW 20.7 mph 31.1 mph N/A   Clear
11:53 AM 81.0 °F 45.0 °F 28% 29.92 in 10.0 mi NW 18.4 mph 28.8 mph N/A   Partly Cloudy
12:53 PM 82.0 °F 43.0 °F 25% 29.89 in 10.0 mi NW 13.8 mph 27.6 mph N/A   Clear
1:53 PM 80.1 °F 37.9 °F 22% 29.90 in 10.0 mi WNW 19.6 mph 33.4 mph N/A   Mostly Cloudy
2:53 PM 80.1 °F 44.1 °F 28% 29.89 in 10.0 mi West 19.6 mph 34.5 mph N/A   Scattered Clouds
3:53 PM 84.0 °F 42.1 °F 23% 29.87 in 10.0 mi West 20.7 mph 29.9 mph N/A   Partly Cloudy
4:32 PM 82.9 °F 44.1 °F 25% 30.14 in 10.0 mi North 17.3 mph 24.2 mph N/A   Overcast
4:53 PM 82.9 °F 45.0 °F 26% 29.86 in 10.0 mi NNW 11.5 mph 18.4 mph N/A   Mostly Cloudy
5:53 PM 81.0 °F 43.0 °F 26% 29.87 in 10.0 mi NW 9.2 mph 21.9 mph N/A   Partly Cloudy
6:53 PM 79.0 °F 46.0 °F 31% 29.87 in 10.0 mi NE 8.1 mph - N/A   Partly Cloudy
7:53 PM 75.0 °F 46.0 °F 36% 29.88 in 10.0 mi West 21.9 mph - N/A   Partly Cloudy
8:53 PM 73.0 °F 45.0 °F 37% 29.88 in 10.0 mi NW 8.1 mph - N/A   Clear
9:53 PM 69.1 °F 46.0 °F 44% 29.87 in 10.0 mi NW 5.8 mph - N/A   Clear
11:53 PM 64.9 °F 44.1 °F 47% 29.88 in 10.0 mi West 11.5 mph - N/A   Clear